Date String (YYYY-MM-DD hh:mm:ss) UTC,Instrument flags,Ambient pressure (hPa),Sample flow (lpm),Bypass flow (lpm),Sample temperature (°C),Ambient temperature (°C),ASC tube jacket temperature (°C),LED temperature (°C),Box temperature (°C),Sample RH (%),Span deviation,Mass concentration (μg/m³),Mass concentration (μg/m³),Mass concentration (μg/m³)
DateTimeUTC,F1_M11,P_M11,Q1_M11,Q2_M11,T1_M11,T2_M11,T3_M11,T4_M11,T5_M11,U1_M11,ZSPAN_M11,X2_M11,X0_M11,X1_M11
2021-09-01 08:00:00,,0821.8,5.00,0.00,29.8,28.8,00.0,38.7,31.6,15.6,0000.4,0025.05,0038.80,0023.52
2021-09-01 08:01:00,,0821.8,5.01,0.00,29.7,27.1,00.0,38.7,31.1,15.6,0000.4,0025.17,0038.97,0023.65
2021-09-01 08:02:00,,0821.7,5.00,0.00,29.5,26.2,00.0,38.7,30.9,15.7,0000.4,0025.28,0039.60,0023.79
2021-09-01 08:03:00,,0821.7,4.99,0.00,29.5,26.4,00.0,38.7,30.9,15.9,0000.4,0025.44,0039.76,0023.95
2021-09-01 08:04:00,,0821.7,5.00,0.00,29.4,26.8,00.0,38.6,31.0,15.9,0000.4,0025.71,0040.29,0024.18
2021-09-01 08:05:00,,0821.7,5.01,0.00,29.4,27.2,00.0,38.6,31.0,15.9,0000.5,0025.98,0041.65,0024.45
2021-09-01 08:06:00,,0821.7,4.99,0.00,29.4,27.6,00.0,38.6,31.1,15.9,0000.4,0026.16,0042.13,0024.64
2021-09-01 08:07:00,,0821.7,5.01,0.00,29.4,27.8,00.0,38.6,31.2,15.9,0000.4,0026.46,0043.35,0024.90
2021-09-01 08:08:00,,0821.8,4.99,0.00,29.5,28.1,00.0,38.6,31.2,15.8,0000.5,0026.63,0043.61,0025.07
2021-09-01 08:09:00,,0821.8,5.00,0.00,29.5,28.2,00.0,38.6,31.3,15.7,0000.7,0026.75,0043.01,0025.19
2021-09-01 08:10:00,,0821.8,5.00,0.00,29.5,28.4,00.0,38.6,31.4,15.5,0001.0,0026.91,0043.19,0025.27
2021-09-01 08:11:00,,0821.9,5.01,0.00,29.6,28.5,00.0,38.6,31.4,15.4,0001.0,0027.13,0044.24,0025.38
2021-09-01 08:12:00,,0821.8,5.00,0.00,29.6,28.6,00.0,38.6,31.4,15.4,0000.9,0027.26,0045.70,0025.50
2021-09-01 08:13:00,,0821.8,4.99,0.00,29.6,28.7,00.0,38.6,31.5,15.5,0000.9,0027.41,0045.09,0025.62
2021-09-01 08:14:00,,0821.8,4.99,0.00,29.7,28.7,00.0,38.7,31.5,15.5,0000.7,0027.65,0045.10,0025.78
2021-09-01 08:15:00,,0821.8,5.00,0.00,29.7,28.8,00.0,38.7,31.5,15.3,0000.8,0027.78,0044.79,0025.86
2021-09-01 08:16:00,,0821.8,5.01,0.00,29.8,28.8,00.0,38.7,31.6,15.2,0000.7,0027.91,0044.35,0025.91
2021-09-01 08:17:00,,0821.8,5.00,0.00,29.8,28.9,00.0,38.7,31.6,15.2,0000.8,0028.17,0044.47,0026.06
2021-09-01 08:18:00,,0821.8,4.99,0.00,29.8,28.9,00.0,38.8,31.6,15.2,0000.7,0028.39,0043.92,0026.15
2021-09-01 08:19:00,,0821.8,5.00,0.00,29.8,27.3,00.0,38.8,31.2,15.2,0000.6,0028.54,0044.23,0026.18
2021-09-01 08:20:00,,0821.8,5.00,0.00,29.6,26.2,00.0,38.7,30.9,15.4,0000.4,0028.66,0044.78,0026.19
2021-09-01 08:21:00,,0821.8,5.00,0.00,29.5,26.4,00.0,38.7,31.0,15.5,0000.3,0028.71,0045.52,0026.21
2021-09-01 08:22:00,,0821.8,5.01,0.00,29.4,26.7,00.0,38.7,31.0,15.6,0000.5,0028.77,0046.54,0026.28
2021-09-01 08:23:00,,0821.8,5.00,0.00,29.4,27.1,00.0,38.6,31.0,15.7,0000.5,0028.87,0046.63,0026.32
2021-09-01 08:24:00,,0821.8,5.00,0.00,29.4,27.5,00.0,38.6,31.1,15.8,0000.6,0028.91,0047.71,0026.33
2021-09-01 08:25:00,,0821.8,5.00,0.00,29.4,27.7,00.0,38.6,31.2,15.8,0000.8,0028.95,0049.34,0026.32
2021-09-01 08:26:00,,0821.9,5.00,0.00,29.5,27.9,00.0,38.6,31.2,15.7,0000.8,0028.98,0050.68,0026.34
2021-09-01 08:27:00,,0821.9,5.00,0.00,29.5,28.1,00.0,38.6,31.2,15.6,0001.0,0028.94,0051.50,0026.29
2021-09-01 08:28:00,,0821.8,5.01,0.00,29.5,28.2,00.0,38.6,31.3,15.6,0000.9,0028.87,0052.44,0026.21
2021-09-01 08:29:00,,0821.8,4.99,0.00,29.6,28.4,00.0,38.6,31.3,15.6,0001.2,0028.77,0053.40,0026.14
2021-09-01 08:30:00,,0821.9,5.01,0.00,29.6,28.4,00.0,38.6,31.4,15.6,0001.3,0028.71,0053.39,0026.08
2021-09-01 08:31:00,,0822.1,5.01,0.00,29.6,28.5,00.0,38.6,31.4,15.6,0001.5,0028.67,0053.60,0026.12
2021-09-01 08:32:00,,0822.0,5.01,0.00,29.6,28.6,00.0,38.7,31.4,16.1,0001.6,0028.81,0053.42,0026.28
2021-09-01 08:33:00,,0822.0,5.00,0.00,29.7,28.6,00.0,38.7,31.5,16.2,0001.3,0029.09,0052.82,0026.47
2021-09-01 08:34:00,,0822.1,5.00,0.00,29.7,28.7,00.0,38.7,31.5,15.9,0001.1,0029.29,0052.44,0026.64
2021-09-01 08:35:00,,0822.1,5.01,0.00,29.7,28.7,00.0,38.7,31.5,15.6,0001.1,0029.37,0052.55,0026.76
2021-09-01 08:36:00,,0822.1,4.99,0.00,29.8,28.8,00.0,38.7,31.5,15.6,0001.1,0029.41,0051.06,0026.85
2021-09-01 08:37:00,,0822.1,5.01,0.00,29.8,28.8,00.0,38.7,31.6,15.6,0000.9,0029.49,0050.88,0026.95
2021-09-01 08:38:00,,0822.1,4.99,0.00,29.8,28.8,00.0,38.8,31.6,15.7,0000.6,0029.72,0050.17,0027.19
2021-09-01 08:39:00,,0822.1,5.01,0.00,29.8,27.9,00.0,38.8,31.4,15.7,0000.5,0029.95,0049.76,0027.44
2021-09-01 08:40:00,,0822.1,5.00,0.00,29.6,26.2,00.0,38.7,30.9,15.8,0000.6,0030.07,0048.95,0027.57
2021-09-01 08:41:00,,0822.1,5.01,0.00,29.5,26.2,00.0,38.7,30.9,15.9,0000.7,0030.16,0050.20,0027.66
2021-09-01 08:42:00,,0822.0,4.99,0.00,29.5,26.6,00.0,38.7,31.0,16.2,0000.7,0030.29,0051.05,0027.75
2021-09-01 08:43:00,,0822.1,5.00,0.00,29.4,27.0,00.0,38.7,31.0,16.4,0000.8,0030.40,0050.96,0027.84
2021-09-01 08:44:00,,0822.0,4.99,0.00,29.4,27.3,00.0,38.6,31.1,16.4,0000.9,0030.29,0050.24,0027.86
2021-09-01 08:45:00,,0822.0,5.01,0.00,29.4,27.6,00.0,38.6,31.1,16.4,0001.1,0030.33,0049.74,0027.95
2021-09-01 08:46:00,,0822.0,5.00,0.00,29.5,27.8,00.0,38.6,31.2,16.3,0001.0,0030.55,0049.33,0028.12
2021-09-01 08:47:00,,0821.9,5.00,0.00,29.5,28.0,00.0,38.6,31.2,16.1,0001.1,0030.74,0050.48,0028.26
2021-09-01 08:48:00,,0822.1,5.00,0.00,29.5,28.2,00.0,38.6,31.3,16.2,0001.3,0030.83,0050.33,0028.37
2021-09-01 08:49:00,,0821.9,5.01,0.00,29.5,28.3,00.0,38.6,31.3,16.2,0001.4,0030.94,0050.59,0028.42
2021-09-01 08:50:00,,0822.0,4.99,0.00,29.6,28.4,00.0,38.6,31.4,16.2,0001.4,0031.01,0051.41,0028.45
2021-09-01 08:51:00,,0821.9,5.00,0.00,29.6,28.5,00.0,38.6,31.4,16.2,0001.4,0031.06,0051.71,0028.56
2021-09-01 08:52:00,,0822.0,5.00,0.00,29.6,28.6,00.0,38.6,31.4,16.3,0001.2,0031.28,0051.65,0028.75
2021-09-01 08:53:00,,0822.1,5.01,0.00,29.7,28.6,00.0,38.7,31.5,16.3,0001.0,0031.51,0050.74,0028.93
2021-09-01 08:54:00,,0822.1,5.01,0.00,29.7,28.7,00.0,38.7,31.5,16.3,0000.9,0031.63,0050.56,0029.07
2021-09-01 08:55:00,,0822.1,4.99,0.00,29.7,28.8,00.0,38.7,31.5,16.4,0001.0,0031.82,0051.78,0029.22
2021-09-01 08:56:00,,0822.1,5.01,0.00,29.7,28.8,00.0,38.7,31.5,16.4,0000.8,0031.99,0053.19,0029.36
2021-09-01 08:57:00,,0822.1,4.99,0.00,29.8,28.9,00.0,38.7,31.6,16.3,0000.9,0032.11,0053.01,0029.49
2021-09-01 08:58:00,,0822.1,5.00,0.00,29.8,28.9,00.0,38.8,31.6,16.3,0000.6,0032.29,0053.51,0029.64
2021-09-01 08:59:00,,0822.1,5.00,0.00,29.8,29.0,00.0,38.8,31.7,16.2,0000.5,0032.41,0053.38,0029.79
